Temp
18 17 17 18 18 18 18 17 17 17 18 17 17 17 17 18 19 17 16 16 16 17 16 10 7 10 8 7 7 7 8 9 8 7 7 8 9 9 10 9 9 10 9 9 9 9 10 10 10 10 9 8 6 1 -3 -1 1 4 7 6 4 5 5 5 7 7 8 7 5 4 5 6 6 4 2 2 2 2 2 1 1 0 0 1 0 0 2
18 18 18 18 18 18 17 17 18 17 17 17 17 18 18 17 17 16 16 16 17 19 19 14 11 9 8 8 8 7 7 8 9 9 9 9 9 11 11 9 9 9 7 8 10 9 10 11 9 8 9 8 2 -2 -3 0 3 5 6 5 5 6 7 7 8 8 8 8 7 6 6 6 6 4 1 1 1 1 1 -0 -1 -1 0 1 -0 -0 2
17 17 17 18 18 17 17 18 17 17 17 17 17 16 16 17 16 16 16 14 14 15 14 14 13 10 10 12 10 9 9 7 7 9 8 7 8 10 10 8 8 7 7 8 8 8 10 11 9 7 8 7 3 -1 -2 -1 2 3 2 1 3 6 7 7 8 8 7 7 7 7 7 6 5 4 1 1 0 -1 0 -0 -1 -0 0 0 -1 -0 2
17 17 17 17 17 17 18 17 17 18 17 17 17 15 15 18 19 19 18 13 10 9 7 10 13 12 13 14 10 10 12 9 6 7 8 7 6 8 9 7 7 8 8 10 10 8 8 8 9 9 8 8 4 -1 -2 -1 1 1 -0 -1 2 5 5 6 8 8 7 7 7 7 7 5 4 3 1 1 -0 -1 -0 0 -0 -0 -0 -1 0 1 1
17 17 17 18 17 17 18 17 17 18 17 17 18 14 13 18 19 17 18 16 14 12 9 10 13 12 13 15 11 11 13 11 8 8 8 7 6 8 8 8 9 11 10 11 11 9 8 7 9 9 7 7 4 -1 -1 -0 0 1 1 0 2 6 6 6 6 7 7 7 6 6 5 3 3 3 1 0 -0 -1 -0 -0 -0 -0 -1 -1 1 1 -0
17 17 17 17 17 17 18 17 17 17 17 17 18 14 12 16 15 10 11 15 16 15 13 11 11 11 11 11 10 11 13 12 12 10 8 7 7 9 11 9 10 10 10 11 11 10 9 9 8 7 6 6 6 3 2 2 1 1 2 1 3 6 7 4 4 5 5 4 4 4 3 2 2 2 1 0 -0 -1 -1 -1 -0 -0 -1 -1 1 0 -1
17 18 18 17 18 18 17 17 17 17 17 16 18 17 11 11 13 8 7 11 11 9 9 9 12 13 11 11 10 12 14 13 11 9 9 10 8 9 13 12 9 8 8 9 11 10 11 11 9 7 6 6 7 7 6 4 2 2 4 3 1 4 6 4 2 3 3 3 4 3 2 2 2 1 0 0 -0 -1 -1 -1 -1 -1 -1 -0 0 -0 -1
17 18 18 17 18 18 17 17 17 17 17 16 17 16 13 14 16 12 10 10 8 6 7 10 14 13 11 13 12 10 13 14 11 8 10 13 11 9 12 12 8 7 7 8 10 10 10 11 9 7 7 7 6 7 7 6 3 3 4 2 1 4 5 3 1 2 4 4 4 3 2 2 2 0 -0 -0 -1 -1 -1 -1 -1 -1 -1 -0 -1 -2 -2
18 18 18 18 18 18 17 18 17 16 17 17 15 13 12 13 13 12 15 14 8 8 9 9 15 16 13 14 13 11 13 13 11 10 8 10 12 10 11 11 8 6 6 8 10 8 7 9 8 6 7 7 7 6 6 5 5 5 3 2 2 4 4 2 1 3 5 4 4 3 2 1 0 -0 -0 -1 -1 -1 -1 -1 -0 -0 -1 -1 -2 -4 -4
18 18 18 18 18 18 18 18 18 17 17 17 16 12 10 11 11 11 16 16 9 9 10 10 14 16 13 12 11 11 12 9 9 12 9 6 8 8 8 10 8 8 9 9 8 7 6 6 5 4 5 5 4 5 4 4 5 5 4 1 1 2 3 3 2 3 6 5 3 3 1 2 3 2 0 -0 -1 -1 -0 -0 0 -0 -1 -3 -4 -4 -4
19 19 19 19 18 19 19 18 17 17 17 17 16 13 11 15 15 12 16 18 10 7 10 14 15 14 10 9 9 9 9 8 9 13 12 8 6 5 6 8 9 10 10 6 3 2 2 2 2 2 3 3 3 3 3 3 3 3 4 3 0 0 3 3 1 3 6 4 2 3 5 7 6 2 -0 -0 -0 -1 -0 -0 0 -1 -2 -4 -4 -3 -3
19 19 19 19 19 19 18 18 18 17 17 17 17 16 15 16 17 15 19 21 12 6 11 13 11 9 9 9 9 9 9 9 8 9 11 9 6 4 5 8 10 10 5 1 0 1 1 2 3 3 3 3 3 2 3 3 2 1 2 4 3 3 3 1 -1 2 4 2 2 6 9 7 3 -0 -0 0 0 -0 -0 -0 0 -1 -3 -4 -3 -3 -3
20 20 20 19 19 19 18 18 18 17 18 17 17 17 17 16 16 16 19 21 14 9 13 11 4 4 8 8 9 8 6 6 5 5 8 9 7 6 5 6 8 6 1 0 2 3 5 5 4 5 4 3 4 4 4 3 2 1 1 2 3 4 4 2 1 2 3 3 3 6 8 4 -1 -1 1 0 -0 0 -0 -0 0 -2 -3 -4 -4 -4 -4
20 20 20 20 20 20 19 19 18 18 18 18 17 18 18 17 17 15 16 20 15 6 7 11 8 6 8 8 8 7 5 5 6 6 6 7 8 8 5 4 4 2 0 2 4 5 7 9 9 9 8 7 8 8 6 4 2 1 2 2 2 3 3 3 3 2 3 3 2 3 5 4 0 0 1 0 -0 0 -0 -1 -1 -2 -3 -3 -4 -4 -4
20 20 20 20 20 20 19 19 19 19 18 18 18 18 18 17 18 17 14 17 16 7 6 12 13 10 9 8 8 9 9 9 8 7 6 5 6 6 3 1 1 0 1 3 5 6 8 11 12 13 12 11 11 10 9 7 3 0 -0 0 1 1 2 4 4 3 2 2 2 2 5 6 4 1 1 1 0 0 -1 -2 -2 -3 -3 -3 -4 -4 -5
20 20 20 20 20 20 19 19 19 19 19 19 18 18 18 17 18 18 13 13 17 15 9 7 7 7 9 7 6 9 12 11 10 10 9 7 6 5 2 -0 0 0 1 4 5 7 9 11 11 11 12 11 10 9 9 9 6 2 -1 -0 1 1 1 2 3 3 2 2 3 3 5 6 4 1 1 1 0 -1 -2 -2 -2 -2 -3 -3 -4 -5 -5
20 20 20 20 19 19 19 19 19 18 18 18 17 17 18 16 17 18 15 13 15 13 4 -1 2 7 11 10 8 9 10 9 9 11 12 10 7 5 3 1 0 1 3 6 8 8 10 10 8 10 10 7 7 9 9 8 8 7 4 2 3 3 2 2 3 4 2 1 2 2 4 5 2 0 1 1 -0 -1 -1 0 1 -1 -3 -4 -4 -5 -5
19 19 19 19 19 19 19 18 18 18 18 18 17 17 17 16 17 17 15 15 16 10 -0 -4 2 7 9 9 9 8 7 8 10 11 10 8 6 6 6 4 3 4 4 6 9 10 11 9 8 10 11 6 5 9 9 7 8 8 6 5 4 3 2 1 2 3 2 1 2 2 4 4 2 1 1 0 -0 -1 -0 1 0 -2 -3 -4 -5 -5 -5
19 19 19 19 19 19 18 18 18 18 18 17 17 17 16 15 16 16 15 13 14 10 1 -5 -1 2 1 1 5 5 4 6 9 11 11 10 7 6 5 4 5 6 4 7 9 9 10 10 5 5 9 7 5 7 8 7 8 7 5 5 5 4 3 2 2 2 2 0 1 3 5 3 1 1 1 -0 0 1 0 -0 -2 -3 -4 -4 -5 -5 -6
19 19 19 19 19 18 18 18 17 17 17 17 17 16 15 14 15 16 16 11 7 5 0 -4 -3 -1 -2 -0 4 6 6 7 9 10 13 12 6 5 9 10 8 7 7 9 10 7 9 11 6 3 8 9 6 6 7 7 7 6 6 6 5 4 5 4 3 2 2 1 1 5 7 3 -0 1 2 -0 1 1 -1 -2 -3 -4 -4 -5 -5 -6 -7
19 19 18 19 19 18 18 18 17 17 17 16 16 16 14 14 14 15 16 12 8 6 4 -1 -3 -2 -2 -2 -1 0 3 6 6 7 10 7 3 6 13 12 9 8 9 10 9 7 7 8 5 4 6 6 4 6 7 7 7 4 2 4 4 3 5 6 4 2 3 4 5 7 8 4 0 2 2 1 0 -0 -2 -4 -4 -4 -4 -5 -6 -6 -7
18 19 18 19 19 18 19 18 17 18 17 16 17 16 13 12 12 13 15 12 6 3 1 -1 -3 -3 -3 -2 -2 -3 -1 -0 -0 1 5 5 3 4 8 9 8 8 7 7 9 9 6 5 6 6 7 6 5 5 4 6 9 6 1 3 6 5 5 6 5 4 4 5 6 7 6 4 1 1 1 0 -1 -2 -3 -4 -4 -5 -5 -6 -7 -7 -8
18 18 18 19 18 18 19 18 17 18 17 16 16 16 13 11 11 13 14 8 1 -1 -1 -2 -1 -1 -2 -2 -2 -2 -2 -1 -2 -2 0 4 6 4 4 6 6 5 3 5 9 10 8 7 6 7 8 7 6 6 4 4 7 6 4 5 6 4 3 3 4 4 3 4 5 4 4 4 2 0 -1 -1 -2 -3 -4 -4 -5 -5 -6 -7 -8 -8 -9
18 18 18 18 18 18 18 18 17 17 17 16 17 16 14 13 12 13 13 7 3 3 3 0 0 1 1 -1 -2 -2 -2 -1 -1 -2 -2 2 6 8 6 4 3 4 4 3 2 4 5 5 3 5 8 7 6 8 8 7 6 5 5 6 5 2 1 3 3 3 3 4 5 4 3 3 2 0 -1 -2 -3 -3 -4 -4 -5 -6 -7 -7 -8 -9 -10
17 17 17 18 18 17 17 17 17 17 16 16 16 16 15 13 12 13 14 11 8 9 9 6 3 1 -1 -1 -1 -1 -1 -2 -2 -2 -2 -1 2 6 6 2 1 4 4 1 -1 2 6 6 4 5 8 7 5 7 8 7 6 4 5 7 7 3 1 3 3 3 3 4 5 3 3 2 1 -1 -1 -2 -3 -3 -4 -5 -5 -6 -7 -8 -9 -10 -11
17 17 17 17 17 17 16 16 15 16 15 15 16 16 15 14 13 14 15 13 9 9 10 8 4 0 -1 -0 -1 -1 -1 -1 -3 -3 -2 -1 -1 1 1 -0 -0 1 1 -1 -0 3 6 6 5 7 8 6 5 5 6 5 5 4 4 6 5 2 2 3 3 3 2 3 4 3 2 2 1 -1 -2 -2 -3 -3 -5 -6 -6 -7 -8 -9 -10 -10 -11
17 16 16 16 17 16 16 15 15 15 14 15 15 15 14 14 14 14 14 13 13 13 12 8 3 1 -0 -0 -1 -1 -1 -1 -1 -2 -1 -1 -0 -1 -1 -0 0 1 2 2 1 2 4 5 6 6 5 3 2 2 2 2 2 2 3 3 1 2 4 3 3 3 4 5 5 3 3 3 2 -0 -2 -3 -4 -5 -5 -6 -7 -8 -9 -10 -11 -11 -12
16 15 15 15 16 16 16 15 15 14 14 14 15 15 15 14 14 14 14 14 14 13 10 6 3 2 3 1 0 0 0 -1 -0 0 -0 -0 0 0 -0 0 1 2 4 5 4 4 6 6 5 3 2 1 2 2 1 -0 1 3 4 3 2 4 6 5 5 6 7 6 5 3 2 3 2 -0 -2 -4 -6 -6 -6 -6 -7 -8 -9 -10 -11 -12 -12
15 15 15 14 15 15 15 15 15 14 14 14 15 15 15 14 13 14 14 14 13 8 5 5 5 4 4 3 1 0 1 1 0 1 1 1 1 0 0 0 1 1 3 4 5 6 6 4 3 2 1 2 3 4 2 2 4 6 7 4 3 4 5 6 7 7 7 6 4 2 2 2 1 -1 -2 -4 -6 -6 -6 -7 -8 -9 -10 -11 -12 -13 -13
15 15 15 14 15 15 14 15 15 14 14 15 15 15 15 14 13 13 12 13 13 10 7 9 9 5 2 2 1 1 2 1 1 1 1 1 1 1 1 1 -0 -1 1 3 4 5 5 3 1 1 0 0 2 4 3 2 4 6 7 5 3 3 4 4 5 6 6 4 2 1 1 1 -1 -3 -5 -6 -7 -7 -7 -8 -9 -10 -11 -12 -12 -13 -13
15 15 15 15 15 15 15 15 15 15 15 15 15 16 16 15 13 13 12 13 14 11 7 7 7 5 3 3 2 2 2 1 2 2 1 1 2 1 0 1 1 0 2 4 3 2 2 3 2 2 0 0 2 3 2 2 4 7 8 7 4 3 2 3 3 3 3 2 -0 -1 -1 -2 -3 -4 -5 -6 -7 -7 -8 -9 -10 -11 -11 -12 -13 -13 -14
15 15 15 15 15 15 15 15 15 15 15 14 14 14 14 13 13 12 12 13 13 12 11 10 9 7 6 5 3 1 2 2 2 2 2 2 2 1 1 1 1 1 2 3 2 2 1 2 2 2 0 0 1 1 -0 1 5 7 8 8 6 3 2 2 2 1 0 -1 -2 -1 -1 -2 -3 -3 -4 -6 -7 -8 -9 -9 -10 -11 -12 -13 -13 -14 -14
15 14 14 15 14 14 14 14 14 15 15 14 13 13 12 12 13 12 13 13 12 9 10 12 11 8 7 6 3 2 3 3 2 2 3 2 1 1 2 1 1 1 2 2 3 3 1 -0 1 1 0 -1 -0 0 1 2 5 7 7 7 6 3 1 1 1 0 -1 -2 -2 0 2 -0 -3 -4 -5 -6 -8 -8 -9 -10 -11 -12 -13 -14 -14 -14 -14
15 14 14 15 14 14 15 14 14 15 15 13 13 12 12 12 13 12 13 14 11 9 9 10 10 9 7 6 5 3 2 3 4 4 4 2 0 1 3 2 2 3 3 2 2 2 0 -0 1 2 0 -1 -1 1 3 4 5 5 5 5 4 2 0 -0 -0 -0 -1 -3 -3 -2 -1 -3 -4 -5 -6 -7 -8 -9 -10 -11 -11 -12 -12 -13 -14 -14 -15
15 14 15 14 14 15 15 14 15 15 14 13 12 12 12 12 12 12 13 13 12 13 11 8 9 11 10 10 10 5 1 2 4 2 2 2 1 0 2 3 4 4 3 2 2 2 2 1 1 2 1 -0 -0 2 5 7 8 7 5 4 2 1 1 2 2 1 -2 -3 -3 -4 -5 -5 -5 -5 -6 -7 -8 -10 -11 -11 -12 -12 -11 -11 -13 -14 -15
15 15 14 14 15 15 15 15 15 14 13 13 13 12 13 13 12 12 13 12 12 14 12 8 7 9 9 11 10 5 1 3 3 0 0 2 1 0 1 3 5 3 1 0 1 2 1 0 1 2 1 1 4 7 7 8 9 9 8 6 3 1 3 5 4 1 -2 -4 -4 -4 -5 -6 -5 -5 -6 -6 -8 -10 -11 -11 -11 -12 -11 -11 -12 -14 -16
15 15 15 14 15 15 14 14 13 13 13 13 12 12 13 13 12 13 12 11 11 10 8 9 9 5 4 7 7 3 3 5 4 2 2 3 2 1 1 3 5 3 1 2 3 1 -0 -0 1 2 3 4 7 8 5 5 7 7 7 7 4 1 2 3 1 0 -2 -4 -5 -5 -6 -6 -6 -6 -7 -6 -8 -10 -10 -9 -10 -11 -11 -11 -13 -14 -16
15 14 14 15 15 15 15 14 13 13 14 13 13 14 13 11 12 12 10 9 10 7 4 7 8 3 0 5 6 3 3 4 3 4 4 2 2 3 2 2 3 3 3 5 2 -1 -0 0 -0 1 3 3 4 6 4 3 4 4 5 5 4 2 1 0 -1 0 0 -1 -2 -3 -5 -5 -5 -6 -7 -6 -7 -9 -9 -9 -10 -11 -12 -13 -14 -15 -16
15 15 14 14 14 14 14 14 13 13 14 13 13 14 12 10 12 13 9 7 9 7 4 5 6 1 2 7 6 2 1 3 4 6 5 2 3 5 4 3 3 2 4 6 2 -1 3 4 0 -0 2 3 5 7 6 4 4 4 3 2 2 1 -0 -1 -2 0 2 2 2 0 -2 -2 -2 -4 -6 -7 -7 -8 -9 -10 -11 -12 -13 -14 -14 -15 -17
15 14 14 14 13 13 14 14 13 14 14 13 12 13 12 11 11 11 10 10 10 8 4 4 3 -2 -1 4 5 2 1 2 3 5 4 3 2 3 3 4 3 3 6 7 2 -0 3 4 1 2 6 10 11 11 7 4 4 4 2 0 -1 -1 -2 -2 -2 -1 -0 0 -1 -2 -2 -3 -3 -4 -5 -6 -7 -8 -9 -11 -12 -12 -13 -14 -15 -16 -17
15 14 14 14 14 14 13 13 13 13 13 13 13 13 13 12 8 5 7 12 13 7 1 1 3 2 0 1 3 3 1 -1 -2 -1 2 3 1 1 4 4 2 3 7 6 1 -1 3 4 3 4 8 12 13 11 7 5 6 4 0 -2 -2 -2 -3 -3 -3 -3 -3 -3 -4 -5 -4 -4 -5 -6 -6 -7 -8 -9 -10 -11 -12 -13 -14 -14 -15 -15 -16
15 15 15 14 14 13 13 14 13 12 12 15 15 13 11 10 9 8 10 11 10 6 2 1 4 5 2 -1 0 1 0 -2 -3 -1 2 3 1 1 3 3 2 5 7 3 -2 -0 3 4 5 8 11 11 9 7 6 7 7 5 1 -2 -3 -4 -4 -4 -4 -4 -4 -4 -4 -6 -6 -6 -6 -7 -7 -7 -9 -9 -10 -11 -12 -13 -13 -14 -14 -15 -16
15 14 14 14 14 13 13 13 12 11 13 15 15 14 13 12 10 9 9 7 3 3 4 2 1 1 1 -1 -1 -1 -1 -2 -2 0 2 2 1 1 2 3 3 5 3 -1 -1 3 5 6 9 14 14 11 7 5 5 5 4 2 -0 -3 -5 -4 -3 -4 -4 -4 -5 -5 -5 -5 -6 -7 -7 -7 -7 -7 -9 -10 -11 -11 -11 -12 -12 -13 -14 -15 -16
14 14 14 14 13 13 15 15 13 13 15 15 14 15 16 14 10 9 11 10 6 5 4 2 2 4 4 -0 -2 -0 -0 -1 -1 1 1 1 0 2 5 6 4 2 0 1 3 4 3 4 8 10 10 8 6 6 5 4 2 1 1 -2 -5 -5 -4 -5 -5 -5 -6 -6 -6 -6 -7 -8 -8 -9 -9 -9 -9 -10 -11 -11 -12 -12 -13 -14 -15 -16 -17
15 15 15 16 15 14 15 16 14 14 15 14 13 13 14 14 13 13 10 7 5 5 3 1 2 5 4 -1 -2 0 0 -1 1 2 2 1 2 4 5 4 2 1 2 4 4 4 5 8 10 9 8 9 9 8 6 4 2 1 1 -0 -3 -6 -6 -5 -5 -6 -6 -7 -8 -8 -9 -9 -10 -11 -11 -11 -10 -10 -10 -11 -12 -13 -14 -15 -16 -16 -17
14 12 14 17 17 13 13 16 16 15 14 13 12 14 14 14 13 10 3 -0 2 5 3 0 1 4 3 1 -0 -0 -1 -0 2 2 -0 2 6 6 2 1 2 4 5 6 6 8 12 14 14 13 12 12 11 9 6 3 0 -1 0 2 1 -3 -6 -6 -6 -6 -6 -7 -8 -9 -10 -10 -11 -12 -12 -12 -11 -11 -11 -11 -12 -12 -14 -15 -16 -16 -16
13 10 12 17 16 12 13 15 14 12 11 10 10 10 7 5 5 3 -3 -4 -0 2 -0 -2 -1 1 1 -0 0 0 -1 -0 2 1 -0 2 6 4 0 1 5 7 7 9 11 13 14 14 14 15 14 12 11 10 7 3 0 -1 -1 1 1 -2 -5 -6 -6 -6 -6 -7 -9 -10 -10 -10 -11 -11 -12 -12 -13 -12 -12 -12 -12 -13 -13 -14 -14 -14 -16
14 11 14 17 17 15 15 13 9 7 6 3 1 -2 -4 -3 3 4 -3 -8 -5 -1 1 1 2 2 1 -0 1 2 1 0 3 2 -0 1 5 5 4 6 7 6 6 9 13 14 15 15 14 14 12 9 9 9 8 5 3 1 -0 -0 -0 -1 -3 -5 -6 -6 -6 -7 -9 -10 -10 -11 -11 -11 -12 -13 -13 -13 -12 -12 -12 -13 -14 -14 -15 -16 -17
12 12 13 14 13 13 10 6 7 11 7 -1 -5 -5 -4 0 6 4 -4 -9 -6 -2 -2 -2 2 4 3 1 1 2 2 2 4 3 1 1 5 7 7 9 10 10 9 9 9 11 13 13 12 11 10 8 7 7 6 5 3 2 0 -1 -1 -2 -3 -4 -5 -6 -6 -7 -8 -9 -9 -10 -11 -12 -13 -13 -13 -13 -12 -12 -13 -14 -14 -14 -15 -16 -17
11 12 13 12 13 12 8 4 9 15 11 4 3 2 0 2 5 2 -5 -7 -4 -3 -4 -2 1 3 2 1 3 5 4 2 2 3 4 5 6 6 6 9 12 14 14 13 11 11 12 11 9 9 10 9 7 6 5 4 3 1 -1 -2 -2 -3 -3 -4 -4 -5 -6 -7 -7 -8 -9 -10 -11 -12 -12 -12 -12 -12 -13 -13 -14 -14 -14 -14 -15 -16 -16
11 12 11 9 10 12 11 10 13 15 13 12 11 7 3 5 7 2 -5 -6 -2 0 3 4 3 3 4 6 8 7 5 1 1 3 5 5 4 4 7 12 13 14 14 14 13 12 11 9 7 8 8 8 8 7 5 3 1 -0 -2 -3 -3 -3 -3 -4 -4 -5 -6 -6 -7 -8 -9 -10 -10 -10 -11 -11 -12 -13 -15 -15 -15 -14 -14 -15 -15 -15 -15
13 13 10 6 4 6 8 10 11 11 10 10 8 4 2 5 3 -3 -6 -3 2 5 5 4 3 5 9 9 6 4 3 3 4 5 6 5 4 5 10 14 14 14 14 13 12 11 10 8 7 7 7 6 6 6 4 1 -1 -2 -3 -3 -3 -4 -4 -4 -4 -5 -5 -6 -7 -8 -8 -9 -9 -10 -11 -13 -14 -15 -16 -16 -16 -15 -15 -15 -15 -14 -15
Height
836 836 836 837 837 838 837 838 838 837 836 835 835 835 836 838 839 839 837 837 837 838 852 876 883 880 886 890 890 891 889 888 891 894 893 892 892 890 890 892 892 892 895 896 896 894 893 893 894 895 898 900 906 918 925 922 918 910 901 904 909 907 911 906 888 878 874 877 885 887 886 884 884 896 906 908 910 909 911 912 909 911 909 901 902 887 861
836 836 836 837 837 837 838 838 837 837 836 835 835 835 838 840 840 840 838 835 835 838 848 863 876 884 888 887 887 890 891 889 889 889 889 890 890 886 887 893 892 893 900 897 894 895 891 890 898 900 897 902 913 924 925 918 913 908 902 906 907 900 901 897 885 880 876 873 878 880 880 881 884 896 909 912 913 914 913 916 922 919 906 902 907 890 858
835 836 836 837 837 837 838 837 837 837 836 835 835 836 839 840 840 842 841 837 838 847 856 860 869 881 881 878 884 886 886 891 892 890 891 895 894 887 888 895 895 898 902 897 897 899 892 889 898 903 901 904 914 922 924 920 915 912 914 916 910 901 901 899 893 896 897 890 887 883 880 884 887 896 909 911 913 917 914 916 922 915 903 905 909 890 861
835 836 836 837 837 837 837 837 837 836 836 836 835 836 838 839 840 842 842 844 848 861 871 867 865 874 872 872 885 884 879 888 896 893 892 896 898 893 893 898 897 896 895 891 891 897 898 897 896 898 898 901 911 922 924 922 918 915 918 920 913 907 908 903 895 898 902 898 891 885 885 892 893 897 908 911 915 919 914 912 914 910 906 902 896 885 868
835 836 836 837 837 837 836 837 836 836 837 836 835 839 841 839 843 848 846 847 852 860 870 869 866 871 868 868 881 883 877 884 891 892 892 895 898 895 894 896 891 886 889 887 887 894 901 901 896 898 902 903 911 921 922 920 918 917 918 918 912 905 902 904 904 899 894 893 891 889 894 901 899 901 910 912 913 916 914 913 910 908 908 893 877 878 876
835 836 836 836 837 836 836 836 836 836 836 835 836 841 845 843 850 861 856 851 856 859 864 871 871 872 874 878 885 882 877 880 881 885 893 896 896 891 887 890 890 889 891 886 885 892 895 895 897 902 907 907 907 911 915 915 916 917 915 915 914 906 899 908 913 904 899 901 899 896 901 904 901 903 909 912 912 913 915 913 906 907 910 895 877 878 880
835 836 836 836 836 836 836 836 836 836 835 837 835 839 849 850 853 864 863 861 869 873 875 876 871 869 875 880 883 879 873 876 882 888 889 887 892 890 880 884 892 894 895 890 886 889 886 886 895 901 904 906 903 901 904 909 915 915 910 913 919 909 900 911 918 910 904 901 896 898 904 902 902 907 909 910 912 913 911 909 906 906 905 894 883 883 883
835 835 835 835 835 835 836 835 835 835 835 837 836 837 845 845 845 856 861 866 877 881 881 874 864 869 876 872 877 882 874 873 883 890 886 877 884 890 882 883 895 898 899 894 887 889 887 884 892 900 900 902 902 899 898 903 911 912 910 916 920 910 903 914 923 911 897 891 891 894 898 898 901 908 911 911 911 911 910 908 905 902 896 888 887 890 886
834 834 834 834 834 834 835 834 835 836 834 835 837 838 841 840 841 846 849 861 877 878 878 876 863 863 870 867 874 880 873 874 881 885 890 886 882 886 884 885 896 901 900 894 888 892 895 891 893 900 898 897 899 900 901 904 906 907 912 917 915 911 909 917 923 908 888 887 891 890 898 906 908 908 909 910 910 908 908 905 899 895 890 886 891 897 890
833 833 833 833 833 833 834 834 834 835 835 835 836 837 840 841 843 844 842 857 878 878 875 876 864 861 869 872 876 878 876 884 883 877 888 895 889 890 890 888 892 892 890 890 891 895 898 898 900 903 901 901 904 903 905 907 905 904 912 918 921 920 911 911 921 906 881 884 893 893 897 895 889 896 904 906 908 904 898 895 891 890 893 895 899 898 888
832 833 832 832 833 832 833 834 834 834 834 835 835 836 838 838 839 844 843 849 874 884 874 866 862 866 876 878 880 882 882 886 884 875 878 890 894 896 895 891 888 885 886 893 898 900 902 902 904 905 905 905 907 908 908 908 908 908 909 913 922 924 913 913 925 908 882 888 897 884 870 862 867 890 903 901 902 901 895 891 887 888 895 899 897 890 882
831 832 832 832 832 832 833 833 833 834 833 834 835 834 836 836 835 840 840 842 867 885 873 865 872 876 878 879 879 881 881 882 886 884 880 886 895 897 895 892 886 885 893 900 901 901 901 902 904 906 906 906 907 909 908 907 910 913 911 909 911 913 911 918 929 916 895 898 895 862 841 856 882 898 899 896 896 896 894 888 884 889 894 894 890 885 881
831 832 831 832 832 832 833 833 832 834 833 833 835 834 835 837 835 839 841 842 860 876 868 871 889 888 880 880 880 883 888 890 893 893 887 886 891 893 894 893 889 890 898 901 901 901 898 899 903 902 903 907 907 905 906 907 910 913 913 912 909 908 908 913 921 916 901 902 902 875 855 877 902 900 893 895 894 891 889 881 877 887 893 890 887 884 880
832 832 832 832 833 832 833 833 832 833 832 832 834 834 835 836 835 839 841 840 858 882 879 870 879 883 879 879 881 885 891 892 891 892 891 889 888 890 893 895 894 896 898 898 899 898 891 888 888 887 891 895 891 890 897 906 911 912 912 912 912 910 909 907 908 911 906 904 908 894 872 878 896 896 891 895 893 890 892 885 880 885 889 889 887 884 880
833 833 833 832 833 832 832 833 832 832 833 833 834 834 835 836 835 836 838 840 856 880 881 865 863 872 877 880 881 881 881 884 886 888 892 894 892 891 895 897 897 897 899 898 897 895 888 880 874 872 873 878 880 882 886 894 906 915 916 916 915 912 910 904 901 909 915 910 906 897 873 861 877 890 889 890 891 890 895 897 890 885 886 887 887 884 880
834 834 834 833 834 833 833 833 833 833 833 833 834 834 834 836 836 835 838 842 846 858 869 872 874 875 876 881 884 878 873 878 882 882 885 889 891 893 896 897 896 898 899 898 896 893 885 880 882 881 876 882 889 886 883 885 894 908 917 918 915 913 915 914 906 906 915 913 908 903 880 861 872 888 886 886 888 888 893 894 885 881 884 884 883 883 880
835 835 834 834 834 834 833 833 833 833 833 833 834 834 834 835 836 834 837 842 847 858 874 882 880 875 871 874 879 877 876 879 880 877 876 881 889 894 896 897 898 899 897 894 891 888 883 887 894 888 883 897 900 885 885 892 888 890 901 907 908 909 912 914 906 903 913 917 913 904 884 869 877 886 884 883 885 886 887 878 866 871 881 881 881 883 880
836 836 835 835 835 834 834 834 834 833 833 833 834 834 834 835 835 835 837 841 847 864 881 885 878 873 870 870 873 876 879 879 877 875 877 884 889 889 890 894 895 893 894 892 886 882 880 888 896 884 880 902 907 889 888 895 887 884 894 900 903 909 914 916 910 907 913 917 912 900 882 872 877 881 881 882 881 883 886 877 868 873 879 879 881 882 880
837 836 836 836 835 835 834 834 834 834 834 834 834 834 834 836 835 834 837 842 847 861 878 884 880 878 879 878 878 880 881 878 875 874 873 877 884 887 890 892 889 889 894 890 886 887 882 886 906 906 889 894 905 896 891 891 887 890 897 898 900 903 907 911 911 907 910 917 913 893 872 870 878 879 878 880 880 881 882 879 877 879 879 879 881 880 880
838 838 837 836 836 836 835 834 834 834 834 834 834 834 834 836 836 834 836 844 855 868 880 884 881 881 882 880 878 877 878 877 876 874 868 870 883 887 880 878 880 887 889 881 882 894 886 879 903 913 892 888 900 898 892 891 890 893 895 893 897 900 896 896 902 904 906 911 904 878 858 867 879 877 875 879 880 879 879 879 880 881 880 880 880 878 880
839 839 838 837 837 836 835 835 835 834 834 835 834 835 835 836 837 836 835 839 848 863 876 881 881 882 882 881 881 880 878 876 876 876 874 878 887 881 868 869 877 880 880 876 879 891 890 887 901 906 895 897 904 896 891 890 887 896 905 900 898 901 894 887 894 903 901 893 879 860 852 865 876 873 872 876 876 877 880 881 881 879 878 879 879 878 879
840 840 840 838 838 838 836 836 835 834 835 835 834 834 836 837 837 838 837 839 847 862 876 880 882 882 881 881 882 881 881 881 880 880 879 880 886 884 876 878 880 878 882 883 878 882 889 894 897 894 890 897 900 899 903 893 877 888 906 898 885 888 888 883 885 892 890 878 865 857 857 864 870 871 872 874 875 877 879 879 879 878 877 878 878 877 878
842 842 841 840 839 839 837 837 836 835 835 835 834 835 836 838 840 839 839 844 856 870 880 881 881 882 883 883 883 881 882 882 880 882 881 878 881 885 883 882 881 881 887 884 875 876 883 887 889 886 883 888 890 892 902 899 885 887 895 887 881 886 891 889 887 887 884 873 863 862 863 863 866 870 872 873 874 876 877 877 877 877 876 877 877 876 877
844 843 843 842 841 840 839 838 837 836 836 835 835 836 836 838 841 841 841 848 858 868 877 882 883 883 883 883 883 882 882 882 880 882 883 879 877 878 880 883 882 882 885 884 882 885 885 888 896 892 881 884 887 882 882 885 887 889 887 880 881 889 892 889 886 887 883 868 857 861 864 862 866 870 871 873 875 874 875 875 875 875 875 875 876 876 875
845 845 844 843 842 842 840 840 839 838 838 838 838 838 839 840 842 842 842 847 852 858 867 877 883 884 884 884 884 883 882 882 881 881 881 881 880 877 877 882 883 881 882 884 886 887 883 885 894 890 878 881 887 883 879 878 881 888 885 874 873 884 890 887 883 884 880 864 854 860 862 861 865 869 868 871 872 871 872 873 873 874 875 873 873 874 874
847 846 846 845 844 843 842 842 842 841 841 841 841 841 841 841 843 844 842 845 850 855 864 874 882 885 884 884 884 884 883 882 882 882 881 881 882 880 880 883 883 882 885 886 886 887 885 885 888 884 880 883 886 885 886 883 883 888 885 874 875 884 885 881 878 879 875 863 857 860 860 857 862 866 866 868 869 869 871 872 871 873 873 872 872 872 871
848 848 847 846 846 845 844 844 844 843 844 844 843 843 843 843 844 845 844 845 848 851 859 873 883 885 885 885 885 884 884 883 882 883 883 882 882 882 882 883 883 883 885 885 886 888 887 885 884 884 885 890 892 893 894 892 892 892 885 879 882 881 875 874 876 872 864 855 852 855 855 853 856 861 864 865 866 867 869 869 870 871 870 870 870 868 868
849 849 849 848 848 847 847 846 846 846 846 845 845 845 845 845 845 846 846 846 846 849 860 875 884 884 883 884 885 884 884 884 883 883 883 883 883 883 882 883 884 885 884 883 883 885 884 881 883 888 893 893 891 893 896 898 895 885 874 872 873 866 859 862 864 856 847 843 847 853 855 852 853 858 861 863 864 865 866 866 867 868 868 868 868 866 866
851 850 850 850 850 849 848 848 847 847 847 847 847 846 845 847 848 847 847 846 846 853 866 876 880 882 882 884 885 885 884 884 885 884 884 884 883 883 883 884 884 884 885 885 883 882 883 884 887 890 891 889 886 886 890 892 884 865 853 856 860 854 849 849 847 843 841 842 846 852 853 851 854 857 859 861 862 862 863 864 864 865 866 866 864 864 864
853 852 851 851 850 849 849 848 847 847 848 847 847 847 847 850 850 849 850 850 848 852 862 868 873 881 886 886 886 886 885 885 885 885 885 885 884 884 884 884 885 885 886 885 883 882 884 888 891 892 890 889 890 887 887 890 881 857 844 848 851 848 847 846 842 841 841 842 847 851 851 851 855 857 858 859 860 860 861 861 862 863 863 863 862 862 862
854 853 853 852 851 850 849 847 846 846 847 847 847 848 849 851 852 851 852 852 850 852 860 868 876 883 886 886 886 886 886 886 886 886 886 886 885 886 885 885 885 885 884 884 885 887 886 885 887 889 890 890 890 889 889 890 877 852 837 840 844 844 844 843 841 841 842 844 849 852 852 853 856 856 856 857 857 858 859 858 859 860 860 860 860 859 859
855 854 854 853 852 851 849 848 847 847 847 847 848 849 851 852 853 853 853 852 852 853 856 863 872 880 882 884 886 887 886 886 886 886 886 886 886 886 886 886 885 885 885 886 886 887 888 888 887 889 891 890 890 893 895 889 869 844 830 832 838 840 841 840 840 842 843 846 849 849 849 851 852 851 852 853 854 855 856 856 856 857 857 857 858 857 857
855 856 855 854 854 853 851 851 851 849 849 850 851 852 854 853 853 854 854 853 854 855 856 861 870 878 881 883 886 887 886 886 887 886 885 886 887 887 886 886 886 885 884 885 885 885 888 891 889 888 890 891 892 894 890 875 853 834 828 831 836 837 838 839 840 842 842 844 845 844 842 843 846 848 848 850 852 853 853 853 854 854 855 855 856 855 854
855 856 856 855 855 854 853 854 853 851 851 852 853 854 855 854 854 855 854 854 855 857 860 865 870 875 880 883 884 887 887 887 887 887 886 886 887 887 886 886 886 885 883 884 885 886 888 890 889 888 890 894 896 891 874 851 835 831 832 833 834 837 840 841 840 839 840 841 841 841 841 842 845 847 847 848 850 850 850 851 851 851 852 853 852 852 851
856 856 856 856 856 855 855 855 854 853 854 854 855 857 857 856 856 856 854 855 856 856 862 870 872 871 872 873 875 883 889 889 888 889 889 887 887 888 888 886 885 883 883 884 886 886 886 887 885 883 887 892 890 876 854 832 824 827 829 829 832 837 838 836 833 833 836 839 839 840 842 843 843 844 844 845 846 847 848 848 848 848 849 849 848 849 848
856 856 856 856 856 855 856 855 854 855 856 855 857 858 857 857 858 857 856 857 856 856 864 875 878 878 876 872 874 885 890 887 888 892 891 888 887 888 888 886 883 883 887 888 888 887 887 887 884 884 889 884 864 843 832 824 819 820 820 821 827 829 826 823 825 828 832 837 838 839 840 841 841 841 841 841 842 844 844 845 845 845 845 845 845 846 846
856 856 856 856 856 856 856 856 856 857 857 857 858 859 857 858 859 857 857 859 859 862 868 871 876 888 892 884 884 890 888 885 888 891 889 888 888 889 890 887 883 884 886 884 883 885 887 887 885 881 876 860 836 822 825 826 820 818 817 816 820 823 821 822 826 828 832 837 839 838 839 840 838 838 838 838 839 840 840 839 840 840 841 841 842 842 842
856 856 856 856 856 857 857 857 857 857 857 858 858 857 858 860 858 858 863 865 864 869 875 875 881 896 899 890 887 889 887 887 890 888 886 889 889 887 889 888 884 885 883 878 882 889 887 886 890 884 865 845 831 823 822 821 817 815 814 813 814 817 819 821 824 825 828 831 832 832 834 835 833 833 833 833 833 834 834 833 834 836 836 837 838 838 838
856 857 856 855 856 857 857 857 858 857 857 858 857 857 860 862 859 861 871 874 872 876 881 882 888 898 896 886 886 891 891 890 889 884 885 889 886 882 885 886 885 886 880 872 880 888 878 874 886 885 860 838 827 816 808 810 812 810 809 810 811 813 815 816 817 817 816 815 815 817 820 822 822 823 826 827 828 829 829 830 831 832 832 833 834 835 835
857 858 857 857 858 858 857 857 857 857 857 858 857 858 861 864 866 871 874 872 873 881 887 887 893 901 898 889 888 891 891 889 887 886 887 888 888 887 887 884 885 886 876 868 880 889 877 870 881 875 842 815 807 803 802 806 807 804 804 807 807 807 810 810 809 809 809 809 810 811 812 813 815 816 819 821 823 824 825 826 827 827 828 829 830 830 831
858 858 857 857 858 858 858 859 858 857 859 859 859 861 865 869 877 885 880 869 869 883 894 894 891 893 896 895 892 890 891 893 894 894 891 890 892 890 884 883 889 885 871 869 885 892 879 872 874 860 826 800 796 799 802 804 803 801 803 804 803 804 806 805 804 806 807 807 808 809 809 810 811 812 813 815 817 818 819 821 821 823 824 824 825 826 827
858 858 858 859 859 858 858 858 857 858 860 858 858 868 876 877 878 881 877 873 877 886 891 892 889 887 891 895 893 890 892 894 896 895 890 887 891 890 887 890 891 877 866 877 893 891 878 870 859 834 808 797 799 802 801 799 798 798 799 800 800 801 801 801 801 802 802 802 804 805 805 806 807 808 809 810 812 813 814 815 816 818 819 819 821 822 823
860 860 859 859 859 859 859 860 860 862 865 863 862 867 872 875 880 882 880 883 891 891 886 888 892 890 890 892 893 892 893 894 894 894 891 889 891 893 890 889 885 876 877 890 892 878 867 858 835 804 789 792 798 802 800 797 797 798 797 797 798 798 797 798 799 798 798 799 800 800 801 802 803 803 805 806 808 809 810 811 811 813 814 816 817 819 820
861 861 859 859 861 860 858 860 862 863 865 868 869 868 865 869 879 882 877 876 883 886 885 889 890 885 885 892 894 892 892 894 893 892 891 892 894 891 881 875 877 881 885 884 878 872 869 854 825 801 796 797 797 796 795 795 795 796 794 794 796 796 796 797 796 796 796 797 796 797 798 799 799 800 802 802 803 804 805 806 808 809 811 812 814 815 817
860 861 860 860 862 861 859 862 866 866 865 870 873 872 868 868 870 872 873 878 883 884 886 891 890 885 886 893 893 890 893 896 891 888 891 892 888 882 877 877 883 886 882 875 870 865 852 830 808 799 799 795 790 788 789 790 791 792 792 792 793 793 793 793 792 792 792 792 792 793 794 794 795 797 797 796 798 799 800 802 804 805 807 809 810 812 813
861 865 864 860 862 867 868 866 865 865 868 871 872 870 868 868 868 873 881 887 887 884 885 890 891 887 887 892 892 892 896 895 888 891 898 891 876 874 883 886 881 874 868 864 856 838 814 795 789 789 788 785 784 785 786 787 788 789 788 786 785 785 787 787 786 786 786 786 787 789 789 790 791 791 791 792 794 795 796 797 799 800 802 804 805 807 809
862 869 867 861 864 872 871 867 867 870 873 875 874 875 878 880 880 883 887 888 887 887 889 893 892 889 890 893 891 891 896 896 889 891 897 889 876 879 889 885 871 862 854 841 824 808 797 790 786 782 780 781 783 783 783 785 786 786 784 781 779 781 782 782 781 781 780 781 783 784 784 784 785 786 787 789 789 789 790 793 794 796 797 799 800 802 805
863 867 864 862 864 865 865 868 875 878 880 883 886 890 892 889 883 881 885 890 891 888 888 889 888 886 889 893 890 888 894 894 886 885 894 891 878 872 872 865 858 858 852 831 809 795 788 784 780 777 780 783 782 780 780 781 781 781 780 778 776 776 775 775 775 774 773 775 777 777 777 779 780 781 783 784 784 785 786 787 789 791 793 794 796 798 800
864 864 864 867 869 869 874 880 878 872 876 887 893 893 891 886 879 879 885 891 891 889 890 892 888 882 884 891 890 887 889 887 880 882 892 888 872 862 858 848 837 832 827 820 810 797 785 780 781 781 781 781 781 780 778 777 775 775 775 772 769 769 768 767 767 766 767 769 771 770 770 773 775 776 778 780 779 780 781 783 785 787 787 788 791 793 794
864 864 865 867 867 869 878 883 873 863 868 878 883 884 886 884 879 880 886 890 890 891 892 890 886 885 889 891 884 877 880 886 885 882 878 870 865 865 860 842 822 808 801 799 798 791 781 780 783 782 779 778 778 777 775 774 772 770 768 765 764 763 762 760 760 761 761 763 763 764 766 768 769 770 771 772 772 774 778 780 781 782 783 784 786 787 788
864 864 867 869 867 867 870 871 864 860 863 865 867 874 880 879 875 878 884 888 889 886 883 883 885 886 883 876 867 865 873 885 888 881 868 863 868 867 849 822 807 800 791 785 785 783 780 780 783 782 778 776 774 772 771 770 768 765 764 762 761 760 758 757 757 756 756 756 758 760 761 761 761 763 765 767 770 774 777 777 777 778 779 780 781 782 783
864 863 868 874 877 876 873 870 867 867 868 868 870 876 878 875 876 881 885 886 883 879 878 882 885 879 868 864 869 875 878 878 874 867 858 856 858 850 827 803 794 791 786 782 783 782 780 779 781 780 778 775 772 769 768 766 764 762 761 759 758 757 756 754 752 752 752 753 754 754 754 756 758 762 765 767 769 770 769 769 770 773 775 776 777 778 779
Wind_Speed
3 2 1 2 3 3 3 3 5 6 7 5 2 0 2 3 3 3 13 5 4 9 6 2 4 4 1 0 1 1 1 2 1 0 1 1 0 2 1 1 1 1 2 1 2 2 1 1 1 1 2 1 1 1 2 2 2 1 1 1 0 1 2 1 5 5 3 2 2 1 2 5 4 3 3 3 2 2 5 4 3 3 4 3 5 9 6
3 2 3 5 5 3 3 4 5 6 6 3 1 2 2 2 3 3 12 5 4 5 4 2 3 1 1 2 2 2 1 2 1 0 0 0 2 2 1 1 1 1 2 2 2 2 1 1 1 1 2 2 0 1 2 3 1 1 1 0 1 1 1 2 4 6 5 4 4 3 2 2 2 2 2 3 4 2 1 0 2 1 4 5 7 9 8
4 5 6 5 4 3 4 4 4 5 5 2 2 3 3 2 1 2 10 12 8 4 3 6 5 3 2 4 2 2 2 1 1 2 1 0 2 2 1 0 1 2 2 2 1 0 1 0 1 1 1 2 1 2 2 3 1 1 1 1 1 1 0 2 4 4 6 6 6 6 6 6 2 2 3 4 4 3 1 0 1 2 4 5 6 9 14
7 6 5 4 3 4 5 5 4 3 4 2 4 4 2 2 2 2 6 10 9 3 1 5 6 5 4 4 1 1 2 0 0 2 1 0 1 2 1 1 1 2 2 2 1 1 2 2 1 1 1 3 1 1 2 2 0 1 2 2 2 2 0 2 5 4 5 7 9 10 7 7 7 4 4 4 2 2 2 1 1 5 8 6 6 11 19
7 6 4 3 3 4 4 2 2 1 2 1 3 6 4 2 2 1 2 4 5 5 4 5 4 3 4 3 1 2 1 1 1 1 0 1 1 1 1 1 2 1 2 2 0 1 2 3 1 1 1 3 2 1 1 1 2 2 1 1 3 4 1 2 5 7 9 9 12 13 9 7 9 5 1 3 4 4 4 1 5 6 7 9 12 16 20
6 5 4 4 4 3 1 1 0 1 0 0 2 4 4 1 2 1 1 1 2 3 3 3 5 4 3 3 1 1 1 1 1 1 1 1 0 1 1 2 2 1 2 2 1 1 2 1 1 1 1 3 3 2 1 2 3 1 1 2 3 4 2 3 3 6 10 10 13 13 8 6 4 1 1 1 4 3 1 5 7 5 5 12 18 20 19
5 5 5 5 5 4 3 2 2 2 2 2 3 3 2 2 3 1 2 3 3 1 1 3 6 5 4 3 1 3 4 3 3 1 2 2 1 0 1 2 2 1 2 4 3 1 1 1 3 2 2 2 1 1 0 2 2 1 2 3 2 3 2 2 2 6 10 11 12 9 5 4 2 2 2 2 3 6 6 7 8 8 10 14 17 19 17
6 6 6 6 6 5 5 4 3 2 4 3 2 4 2 2 3 2 3 4 2 1 2 3 5 4 3 2 1 3 5 4 2 1 2 1 1 1 1 2 2 2 3 4 3 4 5 3 3 4 3 2 2 2 2 2 1 3 2 1 1 1 2 1 1 5 9 8 7 5 4 5 4 3 3 4 4 5 6 5 6 8 11 14 14 14 13
7 7 7 7 6 5 5 4 4 4 4 3 2 3 3 3 4 6 6 4 2 2 2 2 4 2 1 2 3 3 4 5 3 2 0 1 2 2 3 4 2 1 2 3 3 5 6 5 5 7 5 2 2 2 2 4 1 3 1 1 3 2 2 2 5 4 7 3 4 8 3 2 3 3 4 4 4 4 4 4 6 10 14 15 11 8 8
7 7 6 5 4 5 6 6 5 4 4 3 2 4 5 6 4 4 6 4 2 1 1 2 3 2 1 2 3 2 3 3 2 2 0 1 1 2 5 6 4 1 2 3 3 4 6 5 4 5 4 2 2 1 2 4 3 1 3 1 2 2 1 2 3 3 6 1 8 13 4 6 1 4 4 4 4 6 6 7 10 8 6 6 6 6 8
5 4 4 4 4 5 6 7 6 4 5 5 2 5 8 6 3 2 6 5 1 0 1 1 2 2 1 2 2 1 2 2 1 2 2 1 1 1 4 6 3 1 3 3 2 4 5 5 4 4 5 5 4 3 3 4 3 3 5 2 1 2 2 0 1 2 5 6 11 9 3 4 3 3 7 4 3 6 9 13 13 5 3 1 6 8 12
3 3 3 3 4 5 5 6 6 5 6 5 3 6 9 7 4 4 5 4 1 0 2 1 1 1 2 3 3 2 4 4 2 2 3 2 1 0 2 5 3 0 3 5 5 6 6 4 4 4 5 5 4 4 4 4 2 1 3 4 2 2 2 1 2 1 4 7 9 7 4 2 3 6 5 1 4 6 10 12 8 4 2 5 9 13 16
1 1 2 3 3 3 4 4 5 6 6 6 5 7 10 7 5 4 5 5 2 2 2 1 1 0 2 4 5 3 3 3 1 0 2 2 2 1 1 2 2 2 6 8 6 6 4 3 3 2 3 5 4 3 2 2 1 1 2 3 3 3 2 1 1 1 3 5 6 4 4 2 2 2 3 3 4 6 9 12 4 5 0 8 12 15 17
4 3 3 2 2 3 2 2 3 3 5 7 8 8 10 8 4 3 5 5 1 3 2 2 1 1 4 4 5 4 2 2 2 0 0 2 3 3 2 2 2 5 9 8 4 3 2 2 4 3 3 4 5 2 1 0 0 1 1 0 2 4 3 1 2 1 1 2 2 3 4 3 1 3 3 2 3 5 7 10 6 3 1 6 11 15 16
6 5 5 4 2 2 1 1 2 2 3 7 8 8 10 7 2 3 5 6 3 2 2 3 5 6 5 4 4 5 3 1 1 0 1 1 1 1 1 1 4 7 7 4 3 3 1 1 3 3 3 2 2 3 2 1 1 1 1 1 3 2 1 1 1 1 2 2 3 3 5 4 3 5 4 4 5 4 3 4 5 2 1 6 10 13 15
7 7 6 5 4 4 3 2 2 2 3 5 6 7 9 6 3 5 6 7 5 2 3 3 5 6 5 3 2 4 4 3 3 1 2 3 1 1 1 2 4 6 4 4 2 3 4 1 2 1 2 2 2 3 3 2 2 1 1 3 5 4 2 4 3 2 2 2 2 3 4 4 4 6 5 5 5 4 4 2 4 3 2 7 10 12 15
9 8 6 6 5 4 4 4 4 3 2 3 4 6 7 5 5 6 6 6 5 2 1 2 3 3 4 3 1 2 3 3 3 2 1 1 1 1 1 2 2 4 3 2 3 4 5 2 2 1 2 2 2 2 3 2 3 4 3 3 5 5 4 3 2 2 1 3 2 3 5 5 5 6 5 5 4 1 2 6 6 3 6 10 10 11 13
10 9 8 7 6 5 5 4 3 3 1 2 3 4 5 5 5 6 6 6 5 2 0 1 2 2 3 3 3 2 2 3 3 2 1 0 1 2 2 1 1 2 2 2 2 3 4 1 1 2 2 2 1 1 2 0 2 4 2 2 2 2 2 1 1 2 3 4 3 4 5 5 4 4 4 6 3 2 4 9 8 7 10 10 8 10 10
11 10 9 9 7 6 6 4 3 3 2 4 3 2 4 6 6 6 6 5 4 3 2 1 0 1 1 1 2 2 1 2 3 3 3 0 2 2 2 1 1 0 1 2 3 3 3 1 1 3 2 3 1 2 2 2 3 3 1 1 1 1 1 1 0 2 2 3 3 4 5 3 3 3 4 3 3 3 4 6 5 7 10 9 8 9 7
12 12 11 10 9 8 7 6 5 4 2 3 2 1 5 5 3 3 4 5 6 4 1 1 1 1 0 0 2 2 1 1 2 3 4 3 3 4 3 2 2 1 1 2 1 1 2 2 2 2 2 3 2 1 1 3 3 2 2 2 3 3 1 2 2 2 0 1 1 3 5 3 4 3 2 0 1 3 4 3 3 5 6 7 7 7 5
13 13 13 12 11 10 9 8 6 4 2 2 0 2 6 6 4 3 5 10 10 4 1 2 3 3 3 2 2 2 1 1 2 3 4 2 1 3 3 4 4 2 1 2 2 1 2 3 2 1 2 1 0 1 2 2 5 3 2 3 3 4 4 2 3 2 1 2 2 3 2 3 4 1 2 2 2 1 2 2 4 4 3 4 5 5 5
14 14 14 13 12 12 10 9 8 6 4 3 1 3 9 14 15 12 11 15 18 11 6 8 8 7 7 6 5 3 2 1 1 1 3 2 1 0 3 3 3 2 2 3 3 1 2 3 3 2 2 2 1 2 3 2 3 5 1 2 3 5 5 4 3 4 3 4 7 6 5 3 2 3 3 4 3 3 3 3 4 4 3 2 3 5 5
14 14 14 14 13 13 12 11 11 9 7 4 1 5 13 18 17 15 16 21 22 15 9 9 8 7 6 5 5 5 3 2 2 1 2 3 1 0 1 2 2 1 1 2 2 3 4 3 3 3 2 2 3 2 1 2 3 3 2 2 4 4 3 3 2 3 4 7 9 8 7 6 3 3 3 3 4 4 4 3 3 4 3 1 2 4 5
13 13 14 14 14 14 14 14 14 12 11 8 4 8 17 20 18 16 17 15 11 6 4 4 3 2 2 2 3 5 4 2 3 1 1 2 2 0 2 2 2 1 1 2 2 3 3 2 2 2 2 3 3 3 2 4 4 3 2 3 5 2 2 3 2 2 3 5 5 5 5 5 4 3 3 3 4 4 3 2 3 3 2 1 1 3 5
12 12 13 13 14 14 15 16 16 16 15 13 10 12 18 19 14 10 9 8 5 5 4 2 2 2 2 2 3 4 4 2 2 1 1 1 2 2 2 2 3 2 1 3 3 4 3 2 2 2 2 3 2 2 3 3 3 3 3 3 3 1 3 3 4 4 4 6 7 5 5 6 4 4 4 4 4 4 3 3 3 3 2 3 3 3 4
12 12 12 12 12 13 14 14 14 15 13 11 10 12 14 14 11 7 8 11 8 6 4 1 3 2 0 1 3 4 4 4 3 2 2 1 1 3 4 3 3 3 4 5 4 3 3 3 3 3 3 2 2 3 3 2 1 2 3 4 2 4 3 3 3 4 6 9 9 6 6 6 4 4 5 4 4 4 3 3 4 3 2 3 5 4 3
13 12 10 10 10 12 14 14 15 14 12 9 7 7 8 11 11 9 9 8 5 3 3 2 2 2 2 2 3 4 4 5 4 3 2 2 3 3 4 4 4 3 4 4 2 2 4 3 1 3 3 1 1 2 2 1 1 1 5 4 3 4 4 3 2 2 6 7 5 2 2 6 5 4 6 5 4 4 4 3 3 3 2 3 4 5 5
13 11 9 9 10 11 13 15 16 16 14 11 10 10 10 9 7 4 5 4 3 3 4 3 2 2 3 2 3 3 3 4 4 3 2 2 3 4 5 5 3 3 3 2 1 2 3 1 2 2 2 1 0 1 1 1 0 3 6 5 5 6 6 6 6 5 7 7 5 5 3 5 5 3 5 5 6 5 4 4 4 3 4 4 3 3 5
14 11 8 5 4 4 4 4 5 6 7 7 7 10 13 13 11 10 9 8 9 10 7 3 3 3 1 1 3 3 2 3 4 3 3 4 4 4 4 3 3 3 3 3 2 2 2 3 3 1 1 1 1 2 2 1 2 5 6 7 9 9 8 9 10 8 7 5 5 6 5 4 3 4 5 6 8 7 4 4 5 5 6 5 3 2 3
13 13 10 7 4 4 5 6 6 5 2 1 2 4 8 10 11 12 12 9 9 10 7 4 2 1 1 0 2 4 2 3 3 4 5 5 5 5 4 4 4 3 3 3 1 1 1 1 0 1 2 1 3 1 1 2 2 7 7 8 10 9 8 8 9 8 5 3 4 6 5 4 2 3 4 7 10 9 5 4 7 7 6 5 4 4 5
11 12 12 12 10 9 7 6 4 3 3 2 1 2 3 2 4 6 7 6 5 6 6 4 2 1 2 1 1 3 3 2 2 2 3 3 4 4 3 2 2 1 1 2 1 1 1 1 0 0 1 1 3 2 2 3 2 8 7 7 9 9 9 9 9 7 4 3 5 3 1 2 2 2 3 6 10 10 7 6 8 8 6 5 5 6 6
8 9 11 12 13 14 15 15 12 7 5 6 7 6 5 3 3 4 5 5 4 5 6 5 2 1 1 2 2 3 4 3 2 2 2 2 3 3 3 2 1 0 2 3 1 0 1 1 1 1 1 1 3 2 2 3 5 9 8 6 6 8 8 8 7 5 3 5 6 1 3 4 5 5 5 8 12 12 9 7 8 6 4 5 6 6 6
6 7 8 10 12 13 14 15 13 13 15 17 16 13 9 6 4 3 3 4 5 5 5 4 3 1 1 1 1 4 4 2 2 3 2 2 3 3 3 3 2 1 1 1 1 1 0 1 2 1 1 1 3 2 1 5 11 14 11 6 5 6 6 5 5 4 4 6 7 6 5 4 6 7 8 11 13 13 11 8 6 5 4 5 6 5 5
4 4 5 7 8 10 11 11 11 13 16 16 14 14 14 11 7 4 2 2 4 6 6 4 3 1 2 2 1 3 4 1 1 2 2 3 4 2 1 3 3 1 0 1 0 1 1 0 2 2 2 1 2 1 4 9 14 14 11 7 5 3 2 3 4 5 6 7 8 8 4 4 6 6 7 8 10 11 10 8 6 5 4 4 5 5 4
3 2 2 3 5 6 6 7 8 9 11 11 9 9 11 12 12 12 8 3 2 3 2 3 4 2 2 3 2 3 4 2 0 1 1 2 4 2 1 1 3 1 1 1 1 1 1 1 2 2 1 0 1 4 7 11 13 11 8 8 6 5 3 4 7 8 7 6 7 7 4 5 5 6 6 7 8 10 9 8 7 6 4 3 4 5 5
1 1 2 2 3 3 2 4 5 5 5 5 5 5 6 6 8 10 11 10 9 5 2 1 3 2 1 2 2 3 3 2 1 1 1 1 2 2 3 2 1 1 0 2 1 1 1 0 1 1 1 1 4 8 9 9 10 9 8 9 8 8 8 8 6 6 6 6 6 6 5 6 6 6 6 6 7 8 8 6 6 6 4 4 4 5 6
0 2 1 0 1 2 3 4 5 4 4 3 3 4 5 3 2 4 6 10 13 10 5 3 2 0 1 1 2 3 4 2 1 2 2 1 1 1 2 2 1 2 2 2 1 2 1 1 1 1 4 5 7 9 8 8 9 9 9 8 8 9 9 6 5 7 6 4 4 5 5 6 7 6 6 7 7 7 7 6 7 8 7 6 6 6 7
2 2 0 0 1 2 2 2 2 3 3 2 2 3 4 4 3 3 3 4 7 8 6 5 2 0 1 0 2 3 2 1 1 3 1 1 1 2 1 1 1 1 2 3 3 2 1 1 1 2 6 8 8 11 13 12 11 10 9 8 7 8 8 6 8 9 7 4 5 7 7 7 9 8 8 8 8 8 9 9 11 13 12 11 10 10 9
2 1 1 2 2 1 1 1 2 2 1 3 3 2 3 4 4 2 2 3 3 3 4 3 1 1 1 1 2 2 2 2 2 3 1 1 1 2 1 0 0 1 1 2 2 1 1 2 1 2 5 7 7 10 12 10 9 10 10 9 8 9 9 9 10 13 12 9 9 9 9 9 10 9 8 8 8 8 10 11 14 16 15 14 13 12 12
1 1 1 2 2 2 2 2 1 0 1 3 3 2 2 3 3 1 1 3 3 2 1 2 1 2 1 1 1 2 2 3 1 1 1 1 1 0 1 0 0 1 1 3 2 1 1 2 2 2 4 6 7 8 6 5 7 9 8 8 11 13 14 14 15 18 16 11 8 10 12 12 11 9 8 8 8 7 8 11 14 17 17 15 14 15 15
1 2 2 2 3 3 3 3 2 2 2 2 3 2 2 2 2 1 2 3 2 2 1 2 1 2 1 2 2 2 1 1 2 2 1 1 0 1 0 1 1 1 2 5 2 2 2 1 2 3 6 8 8 6 4 4 7 7 6 8 11 14 15 15 16 19 17 11 7 10 14 15 14 13 13 13 13 11 11 12 15 17 18 18 17 17 15
3 4 4 4 4 3 2 3 4 3 2 1 2 2 1 1 1 1 1 1 0 2 1 1 1 2 2 2 2 2 1 1 2 3 1 1 0 2 1 1 2 1 3 4 1 4 2 2 4 6 9 10 8 6 5 6 7 7 7 9 12 14 16 14 13 17 19 17 13 13 15 17 18 18 18 18 17 15 15 16 17 18 19 19 18 17 15
5 4 3 2 2 2 2 3 3 3 2 2 2 2 2 2 2 1 2 2 1 1 1 1 1 1 0 1 1 1 0 0 1 1 1 0 0 2 2 2 0 1 2 1 3 3 1 4 5 8 9 7 6 6 7 8 7 6 6 9 13 16 17 16 14 15 19 21 19 18 18 20 21 21 21 21 20 17 17 19 20 20 19 18 18 17 16
2 2 2 1 2 3 2 1 1 2 2 1 1 1 1 3 1 1 2 2 1 2 2 1 2 1 1 1 1 0 1 1 1 1 1 1 1 2 1 1 3 2 1 1 1 1 4 5 8 10 9 8 7 8 8 8 7 7 6 9 12 15 15 15 14 13 14 17 19 19 19 20 20 20 21 22 23 22 21 21 20 20 19 18 18 19 17
3 3 3 3 3 2 1 1 2 2 2 0 2 3 3 2 3 4 4 2 2 1 1 1 4 2 2 1 1 1 1 1 1 0 0 1 1 0 1 3 2 1 1 1 2 2 4 6 8 9 9 10 11 10 8 8 8 7 5 5 9 13 14 13 13 12 12 16 19 19 18 19 19 19 21 25 26 26 24 22 22 21 20 19 20 20 18
1 1 3 2 1 2 1 1 1 1 1 2 3 4 5 5 5 5 3 1 2 3 2 2 4 3 1 1 1 0 0 1 1 1 1 2 0 2 2 1 1 2 1 1 3 4 6 8 7 6 8 10 10 9 7 6 6 6 6 7 9 13 14 15 14 15 16 18 20 20 19 20 21 21 22 24 26 27 26 25 23 23 23 22 22 22 19
1 1 3 2 1 2 1 1 1 1 2 3 4 4 4 3 3 3 2 2 3 3 2 2 2 2 1 1 0 0 1 2 1 1 1 1 1 2 1 1 1 2 2 3 6 7 7 7 7 7 8 8 7 7 7 6 5 8 10 10 9 10 13 14 15 16 18 20 20 19 20 22 22 22 22 22 24 27 29 27 25 25 25 24 23 21 19
1 1 1 1 1 1 1 1 1 2 2 2 1 2 1 1 2 4 3 3 3 3 3 3 2 0 1 1 1 0 1 1 0 1 0 1 0 1 2 1 3 3 3 5 7 7 6 7 8 8 7 6 6 7 7 7 7 10 12 11 10 12 13 13 15 19 22 22 20 20 21 23 24 24 23 22 23 26 29 30 28 27 27 25 23 21 21
3 2 1 1 1 2 2 1 1 4 3 1 1 1 0 1 3 5 3 3 3 2 2 2 2 2 1 1 1 1 1 1 1 0 1 1 1 1 1 1 4 5 5 6 7 7 7 8 7 7 7 7 6 7 7 8 8 9 11 13 15 15 15 16 19 23 24 23 22 23 24 24 24 23 22 21 22 26 30 30 29 29 29 28 26 25 25
3 2 1 1 1 2 1 1 1 4 5 3 3 2 2 2 4 4 6 6 2 2 2 1 1 1 1 1 2 1 2 2 1 2 0 2 3 2 1 3 5 6 6 6 6 7 8 8 6 6 8 9 8 8 8 9 9 9 12 16 18 19 19 20 22 23 23 25 27 27 25 24 25 25 26 27 27 26 26 28 30 31 31 30 29 27 26
2 1 0 1 1 2 2 2 1 5 5 3 3 4 4 3 3 5 9 8 4 4 2 1 0 2 2 1 1 0 1 1 2 1 2 4 3 3 3 6 8 7 7 7 7 7 7 7 5 6 9 10 9 8 9 10 11 14 16 18 19 19 20 21 22 22 24 26 27 27 27 28 30 30 29 28 25 20 18 23 30 33 32 31 31 30 28
1 0 1 1 1 2 3 2 2 4 4 4 3 3 3 2 3 6 11 9 5 2 3 2 2 3 0 2 2 1 0 1 0 2 4 4 4 5 6 8 9 7 7 8 7 7 7 7 6 7 8 10 11 12 12 13 15 18 21 21 20 20 20 20 22 23 23 23 25 28 30 29 28 26 24 22 20 16 15 20 29 33 34 33 32 31 29
Wind_Direction
216 229 225 178 163 175 216 274 306 328 337 326 311 108 85 86 162 340 357 352 140 72 57 342 25 67 139 351 87 26 72 106 82 45 43 43 125 38 49 145 104 156 173 146 162 156 156 198 156 169 227 237 246 338 353 293 249 160 71 334 312 93 84 334 279 268 275 316 339 336 116 101 81 51 64 103 93 112 171 208 319 324 286 299 295 287 291
219 201 177 173 177 208 263 292 305 330 342 333 100 125 123 126 187 353 9 5 169 87 93 148 63 78 175 61 31 341 73 102 62 126 50 37 137 91 87 180 75 153 153 110 163 180 132 198 216 135 191 224 152 56 340 316 324 81 82 0 337 335 4 4 343 338 340 344 339 318 309 11 52 79 65 85 79 40 221 155 28 265 252 307 309 290 293
193 179 173 179 199 249 283 298 298 327 347 350 98 124 140 93 163 302 13 37 75 100 150 144 128 157 124 80 35 355 58 90 96 144 135 163 155 117 87 169 90 128 129 66 86 201 45 169 265 59 186 254 342 50 337 316 0 65 338 317 318 308 71 82 67 5 325 314 308 302 310 329 351 94 50 37 68 71 62 56 336 277 284 294 278 280 298
178 172 175 195 239 281 289 291 282 322 3 42 92 87 124 108 74 309 352 28 56 72 95 100 112 152 132 87 14 44 88 322 274 129 115 131 137 84 66 170 95 97 100 56 20 323 23 59 98 120 221 262 291 0 331 320 243 292 327 353 72 92 109 153 149 184 246 256 266 283 307 313 304 331 12 352 7 72 60 33 298 295 297 282 265 290 305
173 178 192 225 260 294 297 287 250 265 23 72 86 54 45 104 102 85 344 8 41 45 27 52 88 148 139 109 185 184 138 314 348 99 135 154 123 72 99 133 95 91 90 67 335 275 14 24 81 140 249 272 292 293 251 268 295 290 288 292 92 82 316 241 182 211 239 249 264 282 298 289 285 300 340 308 331 29 42 308 268 290 309 306 307 313 312
183 200 222 243 264 289 279 120 132 237 280 163 104 47 22 61 142 160 96 73 69 54 41 77 85 77 86 101 139 159 123 152 170 151 74 85 123 137 79 24 27 164 155 117 134 0 27 345 249 154 250 288 340 354 258 279 308 356 0 338 99 106 264 237 200 246 259 262 268 274 277 271 267 240 177 299 331 339 247 246 261 280 294 293 303 314 313
209 224 242 257 269 267 236 234 301 271 195 184 118 85 35 77 111 29 18 96 144 130 54 104 93 68 67 98 147 162 160 181 206 177 75 31 326 127 135 310 311 230 178 126 134 199 126 273 266 193 183 249 0 61 262 281 309 66 38 359 100 135 254 235 225 281 276 266 268 268 255 245 213 163 242 266 269 262 251 251 258 250 249 271 295 309 308
233 246 256 264 267 256 245 255 268 200 163 169 117 101 115 144 147 143 61 73 94 25 32 85 90 58 55 97 153 164 164 182 199 157 110 130 277 7 126 216 216 197 175 144 165 214 179 179 240 183 163 277 217 165 197 195 8 28 59 357 345 14 311 293 86 316 291 269 276 279 237 231 211 188 258 273 266 266 260 259 268 268 273 287 304 307 300
248 258 258 261 261 244 232 218 200 185 175 183 120 108 118 110 134 141 111 71 349 351 22 72 102 89 58 138 168 187 189 186 157 123 179 169 186 194 159 160 149 102 168 183 236 230 180 173 204 179 167 224 199 180 197 164 115 1 69 341 344 37 339 352 60 346 285 252 319 315 325 108 161 209 269 290 296 286 256 248 283 301 305 308 314 306 297
252 255 248 250 243 213 205 200 195 206 210 196 128 134 138 105 99 122 106 79 331 353 32 34 106 145 211 142 157 197 207 197 139 113 45 10 141 193 167 154 141 112 187 219 236 210 178 174 196 176 152 123 113 113 146 136 129 149 133 42 337 101 54 338 54 322 274 304 332 312 348 76 78 241 227 220 256 289 288 294 301 303 313 314 303 289 302
241 238 228 226 214 202 203 205 213 228 222 219 191 165 166 148 128 94 80 79 328 56 93 56 104 143 195 142 131 112 125 148 168 141 166 257 349 131 151 143 133 180 194 175 122 126 139 136 123 107 90 74 77 93 107 102 100 148 143 129 323 100 91 206 128 277 285 317 323 312 22 37 314 197 165 184 290 306 298 303 303 284 150 241 281 298 318
216 214 214 207 201 206 209 212 230 238 221 228 229 178 174 164 135 102 89 106 186 76 104 194 191 175 194 147 112 112 149 161 209 165 152 176 192 60 121 127 112 253 167 132 107 105 109 96 74 61 53 48 55 72 87 94 66 57 139 143 141 102 91 136 147 204 281 321 345 354 8 338 227 174 166 268 306 262 261 280 276 200 163 315 315 323 327
130 159 182 191 193 204 214 220 234 240 229 229 220 182 176 164 119 96 97 111 173 214 132 135 286 216 159 130 101 97 148 137 95 22 107 123 166 226 214 141 149 168 144 126 106 105 109 62 38 28 359 11 22 39 70 87 17 29 115 137 147 151 142 130 153 204 299 352 20 358 301 262 160 219 266 302 307 288 302 314 304 158 109 336 333 327 323
84 91 114 147 171 181 205 214 214 235 226 205 196 186 184 175 124 108 116 106 162 235 148 114 230 173 141 140 118 102 94 75 59 342 55 115 160 194 228 209 163 147 139 126 83 75 120 65 38 6 327 9 16 333 261 248 307 135 152 179 130 141 133 48 337 323 6 334 262 242 289 336 10 274 264 238 285 308 323 318 305 179 147 342 334 323 323
80 79 84 93 107 130 169 199 188 206 192 187 196 195 185 183 162 134 134 115 121 222 208 179 190 168 147 160 141 114 96 77 111 112 349 0 153 186 274 180 142 138 131 113 69 65 78 63 49 14 338 11 3 304 282 299 338 57 118 87 79 85 144 121 355 340 75 9 310 311 329 326 254 240 235 214 242 240 201 262 285 219 189 342 334 325 327
73 70 73 77 75 80 88 93 116 148 162 175 195 190 175 176 163 123 109 99 114 162 234 203 171 139 126 147 162 133 136 159 155 123 355 335 303 270 41 93 132 142 115 71 71 81 59 62 139 115 297 215 200 288 313 333 322 336 68 76 65 33 23 104 89 356 62 72 332 287 279 275 223 224 246 255 255 223 172 217 268 226 270 345 344 332 331
67 65 66 70 68 72 74 71 81 95 117 147 178 185 175 172 168 139 105 84 99 125 225 169 140 121 112 119 211 189 151 142 132 125 161 234 232 202 68 66 125 171 148 70 39 63 68 73 120 119 272 220 164 278 311 347 314 303 326 21 42 26 9 50 55 303 194 152 223 247 248 255 224 208 245 284 276 163 24 326 314 325 348 351 347 332 328
60 58 58 57 58 63 61 58 70 68 75 144 163 184 170 157 164 153 116 92 97 112 218 105 112 142 137 143 179 184 144 130 120 104 113 190 206 171 170 145 133 207 194 127 64 72 92 108 129 136 234 254 115 232 259 248 274 270 282 0 8 0 349 12 174 227 201 183 224 266 260 252 242 237 273 289 273 99 2 320 315 340 342 340 337 328 326
56 54 51 48 48 50 51 58 65 59 109 142 146 153 129 127 140 139 112 85 84 120 194 221 116 168 180 127 129 125 114 125 122 111 103 63 241 160 129 137 170 195 32 93 101 100 108 208 240 136 180 275 262 163 217 214 215 223 229 3 327 299 318 329 188 209 212 188 206 273 280 242 210 244 265 290 328 337 316 303 310 326 325 326 328 323 325
57 55 51 48 48 46 43 48 48 43 108 162 213 158 112 114 146 144 119 113 103 95 146 205 150 137 191 134 125 130 139 113 114 132 143 181 199 118 76 311 229 162 54 79 111 156 149 191 236 170 178 241 229 160 242 273 256 211 167 187 212 183 187 292 263 208 270 352 329 313 304 241 200 249 278 97 357 302 282 298 311 297 301 317 320 316 330
55 54 52 49 48 47 44 46 46 43 83 118 172 106 92 84 85 103 132 133 121 107 184 166 125 107 94 83 98 110 127 136 146 160 151 162 183 120 143 213 198 158 177 159 148 206 180 166 195 210 187 200 188 188 208 289 308 291 160 162 218 194 171 239 260 202 105 341 259 241 265 219 183 220 296 235 204 192 190 259 292 291 305 321 311 311 333
54 52 52 50 49 50 49 51 51 48 61 77 112 122 101 95 97 106 117 105 91 87 118 122 104 90 83 73 66 64 69 104 121 150 132 117 354 113 151 175 174 178 183 130 115 183 186 152 161 178 184 168 165 212 183 164 299 295 227 152 225 213 186 195 234 215 194 224 234 243 284 300 166 158 208 214 197 180 188 229 280 301 313 316 306 315 327
53 51 51 50 51 53 53 56 57 51 52 56 95 142 122 112 107 112 113 98 85 84 102 105 94 80 61 48 43 33 33 102 124 125 115 106 90 167 160 161 163 183 175 119 144 172 165 160 154 148 184 191 151 141 194 214 244 252 218 220 243 228 169 149 197 251 271 266 253 254 276 286 248 190 197 183 179 202 213 226 271 290 294 323 334 318 315
52 51 50 49 51 54 57 61 62 60 62 67 88 126 123 119 115 111 106 98 90 91 87 70 71 61 2 0 30 17 10 85 124 141 140 129 129 161 262 221 162 114 288 212 162 121 117 143 136 120 223 219 149 135 205 241 237 208 186 277 286 266 153 158 201 256 307 285 246 215 225 243 225 197 197 186 186 198 192 199 254 273 276 297 326 311 302
52 50 49 48 51 54 57 60 63 65 70 77 94 115 118 118 117 109 98 99 114 121 99 29 345 353 332 337 14 10 3 56 112 166 221 198 172 156 198 201 154 134 185 170 124 85 82 108 121 142 213 228 189 180 211 234 232 197 196 252 273 180 155 198 215 204 226 257 255 246 253 255 232 193 193 197 200 198 180 192 234 249 264 290 307 309 299
53 51 50 52 55 60 64 65 66 69 75 83 94 105 110 109 101 87 96 107 105 95 100 110 306 309 211 27 20 20 33 58 89 116 98 97 150 140 139 135 115 107 103 94 88 98 107 102 111 152 192 214 182 181 201 223 216 204 233 240 180 126 154 198 206 219 255 270 275 287 295 283 242 185 190 196 188 187 191 207 221 219 246 290 297 299 306
50 51 53 57 65 73 76 76 74 72 71 76 86 94 106 109 100 84 83 92 80 44 96 145 278 288 142 102 38 36 60 72 79 87 99 136 149 142 147 144 124 93 74 63 56 91 93 80 150 188 196 214 145 160 203 243 139 215 254 247 151 144 190 195 161 249 267 264 245 214 287 289 266 201 194 196 175 170 191 209 213 219 240 264 281 301 321
48 50 54 65 78 84 83 82 81 75 69 68 73 79 87 94 93 62 29 41 91 122 127 144 161 135 131 90 13 22 59 67 63 62 72 115 135 153 171 165 138 92 78 84 110 101 100 149 215 184 174 201 180 213 260 346 36 255 251 222 183 191 198 175 173 225 253 246 205 167 181 273 267 198 178 183 170 168 194 206 201 217 234 231 237 288 317
49 48 49 60 79 76 58 58 60 54 54 56 61 70 72 69 68 68 59 66 99 111 107 100 96 95 118 341 356 358 25 50 48 62 84 89 108 137 156 147 126 113 102 99 115 123 146 193 195 173 191 185 175 251 276 139 217 252 237 196 191 204 200 185 192 223 255 252 196 167 183 233 226 166 168 182 176 174 192 199 188 202 224 225 216 228 267
52 51 47 39 16 328 303 288 280 288 318 13 29 53 61 58 60 69 71 75 97 107 105 107 106 56 295 276 10 357 12 66 67 71 81 84 90 100 105 103 105 102 84 74 99 153 191 254 270 272 274 202 134 192 235 151 226 265 251 208 206 216 217 213 212 218 237 228 156 158 195 223 189 150 170 182 180 181 189 190 188 200 218 224 224 233 243
52 52 49 44 41 36 29 19 349 287 254 243 332 52 73 61 37 49 61 69 88 101 100 99 98 4 335 341 15 14 23 41 54 57 62 63 64 63 62 77 100 97 83 84 86 143 177 205 67 1 292 55 103 149 177 148 248 274 256 214 212 216 216 224 229 221 210 144 107 104 251 232 164 165 190 184 186 190 190 187 192 202 217 229 237 241 238
51 49 47 47 48 51 54 52 51 61 88 91 85 89 108 116 78 60 68 73 81 100 102 90 73 11 337 321 331 14 22 16 17 29 32 34 35 24 17 36 57 121 113 112 108 275 197 182 130 125 205 81 89 106 143 160 228 255 244 210 213 223 218 223 231 225 189 139 123 112 284 236 200 207 203 183 187 194 195 192 197 207 224 240 246 240 231
55 51 52 56 55 56 62 64 65 74 82 82 81 80 82 86 83 70 70 68 66 80 92 92 95 103 304 290 340 7 7 355 2 18 28 25 11 346 333 0 10 13 72 107 196 223 161 121 123 145 278 37 89 101 207 220 233 246 250 232 217 223 226 226 222 218 201 173 175 208 245 220 197 198 185 175 184 197 201 197 196 204 216 228 237 238 239
63 62 61 67 64 61 63 64 66 76 80 77 71 66 64 65 64 55 58 87 76 66 65 81 112 132 334 349 20 9 8 3 337 357 358 355 3 7 312 338 358 32 36 342 155 137 348 45 142 178 263 0 94 150 256 250 246 250 256 251 227 199 220 265 243 225 214 196 200 219 221 145 143 165 172 174 186 195 197 196 196 200 212 224 230 239 257
66 81 80 77 67 58 55 54 56 67 73 71 66 62 62 64 63 58 54 50 50 49 32 47 86 117 16 0 332 330 359 27 9 311 256 318 357 40 123 338 343 339 250 329 55 85 285 218 160 190 241 1 171 226 241 249 252 252 249 242 215 149 142 238 239 225 211 192 200 218 197 148 153 179 190 193 189 184 187 197 198 200 220 242 235 234 245
58 137 118 86 59 40 30 35 38 49 67 73 69 56 52 61 63 59 57 54 54 71 140 75 59 92 79 353 300 311 351 355 301 324 336 320 349 28 77 65 338 258 49 48 46 270 279 144 144 232 273 209 218 226 226 231 242 246 241 231 207 184 197 216 205 185 179 174 184 196 184 181 204 214 207 207 197 183 188 201 194 193 222 244 230 224 233
56 161 172 213 30 38 37 34 43 69 87 82 59 34 29 37 54 48 46 45 43 48 78 101 79 108 165 227 284 334 347 318 294 351 354 291 289 338 48 71 256 267 356 17 262 228 255 60 113 202 231 226 233 245 242 229 230 238 240 231 210 202 212 206 146 128 133 156 196 216 212 215 227 224 212 214 206 187 192 208 201 200 218 233 230 229 233
87 107 163 310 48 49 27 17 55 99 86 35 12 22 19 23 45 40 15 15 21 27 50 80 91 304 48 50 306 343 356 311 343 7 349 224 275 338 27 92 192 266 320 295 251 193 77 6 76 227 251 257 263 266 257 244 237 240 239 231 216 202 199 182 149 140 144 179 223 222 215 223 234 229 218 218 213 201 207 216 213 211 218 227 233 238 238
88 84 34 55 75 112 180 122 107 124 50 358 10 40 13 15 39 32 338 352 12 4 23 61 134 200 104 65 322 339 42 58 17 359 337 234 302 316 322 339 312 19 345 287 268 83 4 301 326 311 278 272 267 259 248 237 236 241 236 227 217 199 186 182 179 181 189 208 215 201 193 205 220 219 211 212 213 210 211 212 210 212 216 223 229 234 235
61 62 31 37 76 121 134 121 108 128 351 4 23 52 36 25 46 75 340 26 34 339 3 70 145 221 139 105 267 294 29 54 51 232 216 216 210 127 79 39 256 54 309 271 273 57 29 282 304 305 268 253 248 249 241 226 234 241 231 218 212 201 192 193 200 203 209 220 219 201 195 199 203 201 197 198 200 203 207 208 209 212 214 217 223 229 234
0 38 52 84 117 119 105 84 55 49 62 42 31 43 46 14 2 25 58 48 14 283 266 88 70 290 283 146 188 231 307 29 90 124 128 303 302 109 99 287 311 45 260 254 260 65 69 281 276 262 248 242 245 252 254 244 247 248 231 213 209 202 198 200 204 206 208 213 214 207 204 204 204 203 200 197 197 201 205 205 205 209 211 214 221 230 236
81 88 90 98 111 116 86 47 32 32 56 62 30 26 31 0 0 13 37 63 250 265 267 137 174 225 211 178 188 212 240 0 61 91 91 311 278 127 124 333 7 25 241 247 31 61 52 274 265 256 252 249 248 250 250 245 245 244 228 211 205 201 199 200 204 208 209 208 208 207 205 204 206 208 206 204 204 207 209 206 203 206 212 217 223 229 233
82 83 89 85 56 32 22 17 19 36 63 58 40 24 345 346 21 26 312 299 268 219 256 245 216 232 238 166 180 203 225 0 43 86 93 293 297 81 62 33 0 224 240 311 60 74 223 238 239 246 256 260 255 250 249 245 246 250 236 217 211 209 207 204 206 211 212 211 212 212 208 206 209 213 213 210 207 207 211 213 212 212 214 217 221 226 230
335 346 15 32 10 13 15 341 349 47 51 20 58 104 345 329 331 212 256 276 237 226 247 180 129 166 266 256 104 70 328 19 69 79 38 338 23 70 75 231 234 237 323 31 90 219 242 243 241 250 266 279 271 257 250 241 238 242 237 221 214 212 211 211 212 214 215 214 214 213 210 209 211 212 211 210 210 211 213 214 214 214 214 215 219 224 228
301 332 29 33 349 345 23 343 339 29 58 56 171 161 180 243 229 215 230 228 169 172 262 107 117 138 244 270 71 61 339 30 52 317 297 12 22 34 219 236 259 16 34 312 279 278 267 257 251 253 260 265 263 257 249 235 225 218 211 212 212 209 208 210 211 210 211 212 209 207 207 208 207 207 209 211 214 216 216 214 212 211 209 210 215 222 225
90 72 70 66 330 327 62 68 338 7 137 202 198 179 181 200 208 212 225 200 138 155 191 165 122 117 164 264 332 0 45 61 47 239 137 85 30 250 235 234 10 38 40 284 271 256 247 250 255 255 250 252 257 258 253 241 219 197 196 213 216 210 208 211 213 214 215 212 207 205 206 207 206 208 212 214 215 216 217 217 215 211 206 208 215 220 222
101 73 83 99 355 340 28 180 230 233 207 209 209 196 191 210 239 245 225 180 157 156 159 132 98 104 166 185 83 343 28 65 68 248 180 115 216 276 3 36 253 221 199 231 246 246 246 251 258 258 254 253 257 260 257 243 211 205 217 228 226 213 209 213 216 218 217 211 206 206 209 210 209 209 210 212 215 216 216 216 215 212 210 213 219 222 220
141 71 78 125 201 243 211 206 280 290 255 212 233 247 200 176 271 264 227 174 144 128 124 119 110 106 323 39 83 168 284 41 138 238 222 107 180 308 6 349 265 243 205 210 229 242 248 250 251 256 261 258 252 255 256 242 222 219 225 231 230 222 214 213 218 220 216 209 205 208 210 209 208 209 209 211 215 218 217 215 214 213 212 213 215 215 214
94 92 78 101 143 200 201 147 355 305 285 274 334 317 172 180 251 251 202 143 125 133 146 146 144 166 249 343 62 102 231 232 190 194 7 24 220 225 192 238 264 263 238 224 230 242 250 256 268 282 284 271 256 252 254 247 234 228 226 228 230 226 218 215 220 220 215 209 209 212 212 209 206 206 207 209 216 220 219 215 212 212 212 211 211 212 213
67 88 135 126 173 256 254 90 28 301 300 314 312 270 192 204 255 232 175 154 131 82 86 75 77 127 148 357 33 35 264 245 162 110 225 231 207 174 171 225 237 237 230 230 236 243 251 261 277 287 283 276 267 260 258 254 246 240 236 235 235 233 227 225 224 221 216 214 214 213 210 207 205 204 205 210 216 218 216 212 211 212 213 213 212 213 215
30 48 128 122 189 214 186 148 224 273 279 276 252 216 181 192 244 203 169 155 118 78 110 197 179 72 56 0 340 220 253 227 120 134 245 233 188 151 185 227 234 236 242 252 257 260 265 269 265 264 275 281 277 267 261 257 253 252 250 246 242 239 236 232 229 224 221 219 217 213 211 211 210 209 210 212 212 208 206 210 213 214 214 214 214 214 216
43 254 287 0 59 151 156 155 239 260 259 252 231 201 182 215 221 173 155 145 129 136 186 185 93 83 148 247 226 159 63 7 270 258 258 238 198 186 205 227 239 246 257 267 276 283 288 282 263 250 260 272 275 276 275 271 264 261 259 254 248 245 241 236 231 228 224 220 216 215 215 215 213 209 206 203 198 195 201 210 212 211 212 215 217 217 218